User: anonymous   Login
Location: DARK SKY Beskydy - Park tmavé oblohy, www.darkskybeskydy.cz
(49.4926°N, 18.5016°E)
Time: 11:58:39
(UTC+01:00)
Language:

Transit 2A - Orbit

View from above orbital plane
View from above orbital plane
View from above satellite
View from above satellite

Ground track
Ground track

The orbit data is extracted from the following two-line orbital elements,

1    45U 60007A   24053.19255205  .00000382  00000-0  12248-3 0  9998
2    45  66.6931  75.7356 0246842  55.4451 306.9676 14.34539432315504
Epoch (UTC): 22 February 2024 04:37:16
Eccentricity: 0.0246842
inclination: 66.6931°
perigee height: 600 km
apogee height: 953 km
right ascension of ascending node: 75.7356°
argument of perigee: 55.4451°
revolutions per day: 14.34539432
mean anomaly at epoch: 306.9676°
orbit number at epoch: 31550

The dashed part of the orbit path shows where the satellite is in the earth's shadow,  

DLR